Regional Weather Roundup
Issued by NWS

Home | Current Version | Previous Version | Text Only | Print | Product List | Glossary On
Versions: 1 2 3 4 5 6 7 8 9 10 11 12 13 14 15 16 17 18 19 20 21 22 23 24 25 26 27 28 29 30 31 32 33 34 35 36 37 38 39 40 41 42 43 44 45 46 47 48 49 50
000
ASUS46 KLOX 241012
RWRCA

SOUTHERN CALIFORNIA WEATHER ROUNDUP
NATIONAL WEATHER SERVICE OXNARD CALIFORNIA
300 AM PDT FRI OCT 24 2014

NOTE: "FAIR" INDICATES FEW OR NO CLOUDS BELOW 12,000 FEET WITH NO
SIGNIFICANT WEATHER AND/OR OBSTRUCTIONS TO VISIBILITY.

  -  STATIONS PRECEEDED BY AN ASTERISK (*) ARE NOT NWS OR FAA
     STATIONS AND ARE NOT SUBJECT TO NWS AND FAA QUALITY CONTROL.

CAZ041-042-087-241100-
LA AND ORANGE COUNTY COASTAL AREAS


CITY           SKY/WX    TMP DP  RH WIND       PRES   REMARKS
L.A. DOWNTOWN  CLEAR     63  57  81 CALM      29.95F
L.A. AIRPORT   PTCLDY    64  64 100 CALM      29.96F
LONG BEACH     CLEAR     63  58  83 CALM      29.96S

CITY           SKY/WX    TMP DP  RH WIND       PRES   REMARKS
AVALON           N/A     57 N/A N/A S3          N/A
FULLERTON      CLEAR     61  54  77 CALM      29.95F
*GETTY CENTER    N/A     70  25  18 NE3         N/A
HAWTHORNE      CLEAR     63  60  90 CALM      29.96F
*LEO CARRILLO    N/A     63  31  30 N7          N/A
*LOS ALAMITOS  FAIR      59  59 100 CALM      29.96S
*REDONDO BEACH   N/A     59  56  89 CALM      29.95S
SANTA ANA      CLEAR     65  55  70 CALM      29.96S
STA MONICA APT CLEAR     61  48  62 CALM      29.96F
*UCLA            N/A     64  41  42 N5        29.93F

$$

CAZ547-548-048-241100-
LA COUNTY VALLEYS AND INLAND EMPIRE


CITY           SKY/WX    TMP DP  RH WIND       PRES   REMARKS
BURBANK        CLEAR     61  43  51 CALM      29.97F
VAN NUYS       CLEAR     59  42  53 CALM      29.97F

CITY           SKY/WX    TMP DP  RH WIND       PRES   REMARKS
CORONA AIRPORT SUNNY     50  44  79 CALM      29.98F
*CHATSWORTH      N/A     59  42  54 CALM      29.95S
CHINO          CLEAR     58  51  78 CALM      29.99S
*CLAREMONT       N/A     61  28  28 NE2         N/A
MARCH AFB      CLEAR     53  35  50 CALM      30.00F
*NORTHRIDGE      N/A     57  43  58 CALM        N/A
ONTARIO        CLEAR     62  43  49 CALM      29.98S
*PASADENA        N/A     64  37  36 CALM        N/A
RIVERSIDE      CLEAR     62  48  60 E3        29.98F
SAN BERNARDINO NOT AVBL
*SAN RAFAEL HI   N/A     72  36  27 SW6         N/A
*SAUGUS          N/A     62  30  30 N3          N/A
*WHITEMAN AP   NOT AVBL
*WOODLAND HILL   N/A     55  43  62 SW1         N/A

$$

CAZ054-055-241100-
LA AND SAN BERNARDINO COUNTY MOUNTAINS


CITY           SKY/WX    TMP DP  RH WIND       PRES   REMARKS
*BIG BEAR AIRP SUNNY     34  19  55 CALM      30.30F
*BIG PINES       N/A     55  15  20 CALM        N/A
MT WILSON NWS    N/A     63  28  27 S8          N/A
SANDBERG       CLEAR     66  23  19 S13       30.14F

$$

CAZ028-029-059-060-099-241100-
ANTELOPE VALLEY AND SURROUNDING AREAS


CITY           SKY/WX    TMP DP  RH WIND       PRES   REMARKS
LANCASTER      CLEAR     49  26  41 NE5       30.05S
PALMDALE       CLEAR     54  27  35 SW8       30.05S
*POPPY PARK      N/A     59  20  22 W3          N/A

CITY           SKY/WX    TMP DP  RH WIND       PRES   REMARKS
29 PALMS       CLEAR     57  36  45 CALM      30.09F
BARSTOW/DAGGET CLEAR     60  32  34 W8        30.02S
BISHOP         CLEAR     42  24  49 N8        30.09F
CHINA LAKE     CLEAR     56  24  29 CALM      30.02F
EDWARDS AFB    CLEAR     51  21  31 SW2       30.03S
MOJAVE         FAIR      63  19  19 CALM      30.06S
NEEDLES        CLEAR     70  39  32 NW6       29.97F
VICTORVILLE    CLEAR     55  25  30 CALM      30.06F

$$

CAZ039-040-241100-
VENTURA AND SANTA BARBARA COUNTY COAST


CITY           SKY/WX    TMP DP  RH WIND       PRES   REMARKS
CAMARILLO      CLEAR     59  48  67 CALM      29.95S
NWS OXNARD       N/A     56  49  77 CALM      29.94F
OXNARD AIRPORT CLEAR     58  47  66 E6        29.95S
SBA APT/GOLETA CLEAR     56  49  77 CALM      29.95S
*SANTA BARBARA   N/A     59  50  73 CALM      30.02S
*VENTURA         N/A     58  45  61 NE3       29.99S

$$

CAZ044-045-241100-
VENTURA COUNTY VALLEYS


CITY           SKY/WX    TMP DP  RH WIND       PRES   REMARKS
*SIMI VALLEY     N/A     58  36  43 CALM      29.92S
*OJAI            N/A     48  42  78 CALM      29.91F
*FILLMORE        N/A     51  45  80 CALM      29.87S

$$

CAZ053-241100-
VENTURA COUNTY MOUNTAINS


CITY           SKY/WX    TMP DP  RH WIND       PRES   REMARKS
*LOCKWOOD VLY    N/A     37  19  48 MISG        N/A
*ROSE VALLEY     N/A     36  27  69 MISG        N/A

$$

CAZ034-035-036-241100-
CENTRAL COAST AND SANTA YNEZ VALLEY


CITY           SKY/WX    TMP DP  RH WIND       PRES   REMARKS
SAN LUIS OBISP PTCLDY    51  49  92 CALM      29.97S
SANTA MARIA    FOG       55  52  89 CALM      29.98S VSB 1/4

CITY           SKY/WX    TMP DP  RH WIND       PRES   REMARKS
*CAL POLY SLO    N/A     50  48  93 CALM        N/A
*LOMPOC        CLOUDY    55  52  88 CALM      29.98S VSB 3/4
*PISMO BEACH     N/A     55  54  95 CALM      29.98S
*SANTA YNEZ    FAIR      46  43  87 CALM      29.97F

$$

CAZ037-038-051-241100-
SAN LUIS OBISPO COUNTY INTERIOR AND CUYAMA VALLEY


CITY           SKY/WX    TMP DP  RH WIND       PRES   REMARKS
*CUYAMA          N/A     51  34  53 E2        29.96S
PASO ROBLES    CLEAR     50  39  66 CALM      29.99S

$$

CAZ032-033-061-241100-
SOUTHERN DESERTS


CITY           SKY/WX    TMP DP  RH WIND       PRES   REMARKS
BLYTHE         CLEAR     68  42  38 N7        29.94S
IMPERIAL       CLEAR     65  45  48 W7        29.90F
PALM SPRINGS   CLEAR     72  34  24 N8        29.96S
THERMAL        CLEAR     59  47  64 N5        29.90S

$$

ELSEWHERE ACROSS THE WESTERN UNITED STATES AND MEXICO


CITY           SKY/WX    TMP DP  RH WIND       PRES   REMARKS
DENVER, CO     CLOUDY    54  31  41 S5        30.13F
GRAND CANYON,  HAZE      30  24  78 CALM      30.34F VSB 1
HONOLULU, HI   MOCLDY    79  70  73 NE8       30.03F
KAHULUI, MAUI  MOCLDY    75  72  88 NE6       30.04F
LAKE TAHOE, CA CLEAR     37  21  52 CALM      30.14F
LAS VEGAS, NV  CLEAR     64  36  35 SW8       30.01S
MAMMOTH LAKES, FAIR      37  19  48 S6        30.24S WCI  33
MEXICO CITY, M MOCLDY    57  48  72 NW7       30.35F
PHOENIX, AZ    CLEAR     72  49  44 E7        29.97F
PORTLAND, OR   CLOUDY    52  51  97 SE6       30.04S
RENO, NV       CLEAR     43  30  60 NW3       30.08F
SALT LAKE CITY PTCLDY    49  42  77 N3        30.10F
SAN DIEGO, CA  CLEAR     65  53  65 CALM      29.97S
SAN FRANCISCO, MOCLDY    66  60  81 SE3       29.97S
SAN JOSE, CA   CLEAR     56  53  90 CALM      29.97S
SEATTLE, WA    CLOUDY    49  46  90 SE7       30.04R
TIJUANA, MEX     N/A    N/A N/A N/A MISG        N/A

$$

STATION/POSITION TIME  TEMP    WIND        PRES    VSBY  WAVE
                       AIR SEA DIR/SP/G                  HT/PER
                 (UTC) (F)     (DEG/KT/KT) (MB)    (MI)  (FT/S)
POINT ARGUELLO B NOT AVBL
WEST SANTA BARBA 1000   62 63  320/ 14/ 17 1013.5S         8/13
POINT CONCEPTION NOT AVBL
EAST SANTA BARBA 1000   65 69  210/  6/  6 1014.3
SANTA MONICA BAY 1000   67 71   CALM  /  2 1014.0F         4/11



USA.gov is the U.S. government's official web portal to all federal, state and local government web resources and services.